Weather History for Kendall, FL

Change the Weather History Date:

Thursday, November 28, 2013

  Actual Average Record
Temperature  
Mean Temperature 63 °F -  
Max Temperature 73 °F 80 °F 85 °F (1989)
Min Temperature 53 °F 64 °F 50 °F (2008)
Degree Days  
Heating Degree Days 2    
Growing Degree Days 13 (Base 50)    
Moisture  
Dew Point 53 °F    
Average Humidity 74    
Maximum Humidity 88    
Minimum Humidity 52    
Precipitation  
Precipitation 0.00 in - - ()
Sea Level Pressure  
Sea Level Pressure 30.19 in    
Wind  
Wind Speed 12 mph (North)    
Max Wind Speed 18 mph    
Max Gust Speed 22 mph    
Visibility 10 miles    
Events      
Averages and records for this station are not official NWS values.
T = Trace of Precipitation, MM = Missing Value Source: NWS Daily Summary

Daily Weather History Graph

Daily Weather History Graph

Search for Another Location

Airport:

Trip Planner

Search our weather history database for the weather conditions in past years. The results will help you decide how hot, cold, wet, or windy it might be!

Date:

Astronomy

Nov. 28, 2013 Rise Set
Actual Time 6:49 AM EST 5:30 PM EST
Civil Twilight 6:24 AM EST 5:55 PM EST
Nautical Twilight 5:56 AM EST 6:23 PM EST
Astronomical Twilight 5:28 AM EST 6:51 PM EST
Moon 2:15 AM EST (11/28) 2:16 PM EST (11/28)
Length of Visible Light 11h 30m
Length of Day
10h 41m
Waning Crescent, 22% of the Moon is Illuminated
Nov 28
Waning Crescent
Dec 2
New
Dec 9
First Quarter
Dec 17
Full
Dec 25
Last Quarter

Hourly Weather History & Observations

Time (EST) Temp. Dew Point Humidity Pressure Visibility Wind Dir Wind Speed Gust Speed Precip Events Conditions
12:53 AM 57.9 °F 51.1 °F 78% 30.13 in 10.0 mi NNW 13.8 mph - N/A   Clear
1:53 AM 57.9 °F 51.1 °F 78% 30.14 in 10.0 mi NNW 15.0 mph - N/A   Scattered Clouds
2:05 AM 57.2 °F 51.8 °F 82% 30.13 in 10.0 mi North 10.4 mph 20.7 mph N/A   Mostly Cloudy
2:53 AM 55.9 °F 51.1 °F 84% 30.14 in 10.0 mi NNW 16.1 mph 21.9 mph N/A   Scattered Clouds
3:08 AM 55.4 °F 51.8 °F 88% 30.14 in 10.0 mi North 15.0 mph - N/A   Mostly Cloudy
3:28 AM 55.4 °F 50.0 °F 82% 30.15 in 10.0 mi NNW 11.5 mph - N/A   Scattered Clouds
3:53 AM 55.0 °F 50.0 °F 83% 30.15 in 10.0 mi NNW 11.5 mph - N/A   Mostly Cloudy
4:53 AM 54.0 °F 50.0 °F 86% 30.16 in 10.0 mi NNW 12.7 mph - N/A   Overcast
5:53 AM 54.0 °F 48.9 °F 83% 30.18 in 10.0 mi North 16.1 mph - N/A   Overcast
6:46 AM 53.6 °F 48.2 °F 82% 30.20 in 10.0 mi North 15.0 mph 19.6 mph N/A   Overcast
6:53 AM 53.1 °F 48.0 °F 83% 30.21 in 10.0 mi North 11.5 mph - N/A   Overcast
7:53 AM 53.1 °F 48.9 °F 86% 30.22 in 10.0 mi NNW 8.1 mph - N/A   Overcast
8:53 AM 55.9 °F 51.1 °F 84% 30.23 in 10.0 mi NNW 10.4 mph - N/A   Overcast
9:31 AM 57.2 °F 51.8 °F 82% 30.24 in 10.0 mi NNW 9.2 mph - N/A   Scattered Clouds
9:53 AM 60.1 °F 52.0 °F 75% 30.23 in 10.0 mi North 8.1 mph - N/A   Partly Cloudy
10:53 AM 64.9 °F 54.0 °F 68% 30.22 in 10.0 mi North 11.5 mph - N/A   Clear
11:53 AM 68.0 °F 55.0 °F 63% 30.20 in 10.0 mi North 11.5 mph - N/A   Clear
12:53 PM 70.0 °F 57.0 °F 63% 30.17 in 10.0 mi NNE 10.4 mph - N/A   Scattered Clouds
1:53 PM 73.9 °F 57.9 °F 57% 30.15 in 10.0 mi NE 12.7 mph 18.4 mph N/A   Mostly Cloudy
2:53 PM 73.9 °F 55.9 °F 53% 30.15 in 10.0 mi NE 18.4 mph - N/A   Mostly Cloudy
3:53 PM 73.9 °F 55.0 °F 52% 30.16 in 10.0 mi ENE 17.3 mph - N/A   Mostly Cloudy
4:53 PM 71.1 °F 54.0 °F 55% 30.17 in 10.0 mi ENE 13.8 mph - N/A   Mostly Cloudy
5:53 PM 70.0 °F 55.0 °F 59% 30.19 in 10.0 mi NE 8.1 mph - N/A   Mostly Cloudy
6:53 PM 69.1 °F 55.9 °F 63% 30.22 in 10.0 mi NE 12.7 mph - N/A   Scattered Clouds
7:53 PM 66.9 °F 54.0 °F 63% 30.24 in 10.0 mi NE 5.8 mph - N/A   Clear
8:53 PM 64.9 °F 54.0 °F 68% 30.24 in 10.0 mi NNE 4.6 mph - N/A   Clear
9:53 PM 64.0 °F 55.0 °F 73% 30.24 in 10.0 mi North 6.9 mph - N/A   Clear
10:53 PM 63.0 °F 55.9 °F 78% 30.24 in 10.0 mi North 5.8 mph - N/A   Clear
11:53 PM 63.0 °F 59.0 °F 87% 30.22 in 10.0 mi North 9.2 mph - N/A   Clear